This is the latest recevied weather packets stored in our database for station/object W1HS. If no packets are shown the sender has not sent any weather packets the latest 10 day(s).
| Time | Temp. | Humidity | Pressure | Rain* | Wind** | Luminosity | Snow |
|---|---|---|---|---|---|---|---|
| 1777479619 | 16.11° C | 51% | 994.4 hPa | 0 mm | - | 580 W/m² | - |
| 1777479020 | 16.67° C | 52% | 994.5 hPa | 0 mm | - | 932 W/m² | - |
| 1777478419 | 16.67° C | 53% | 994.5 hPa | 0 mm | - | 919 W/m² | - |
| 1777477820 | 16.11° C | 52% | 994.5 hPa | 0 mm | - | 907 W/m² | - |
| 1777477219 | 16.11° C | 52% | 994.3 hPa | 0 mm | - | 888 W/m² | - |
| 1777476619 | 15.56° C | 53% | 994.6 hPa | 0 mm | - | 886 W/m² | - |
| 1777476020 | 15.56° C | 54% | 994.8 hPa | 0 mm | - | 874 W/m² | - |
| 1777475419 | 15° C | 55% | 995.3 hPa | 0 mm | - | 810 W/m² | - |
| 1777474820 | 14.44° C | 57% | 995.3 hPa | 0 mm | - | 707 W/m² | - |
| 1777474219 | 13.89° C | 57% | 995.3 hPa | 0 mm | - | 645 W/m² | - |
| 1777473619 | 13.89° C | 58% | 995.5 hPa | 0 mm | - | 638 W/m² | - |
| 1777473019 | 13.33° C | 58% | 995.7 hPa | 0 mm | - | 668 W/m² | - |
| 1777472419 | 12.78° C | 61% | 996 hPa | 0 mm | - | 714 W/m² | - |
| 1777471819 | 12.22° C | 64% | 995.8 hPa | 0 mm | - | 724 W/m² | - |
| 1777471220 | 11.11° C | 70% | 995.8 hPa | 0 mm | - | 710 W/m² | - |
| 1777470619 | 10° C | 73% | 996.1 hPa | 0 mm | - | 657 W/m² | - |
| 1777470019 | 9.44° C | 74% | 996.6 hPa | 0 mm | - | 364 W/m² | - |
| 1777469419 | 8.89° C | 75% | 996.9 hPa | 0 mm | - | 334 W/m² | - |
| 1777468819 | 8.89° C | 76% | 997.1 hPa | 0 mm | - | 367 W/m² | - |
| 1777468219 | 8.89° C | 76% | 997 hPa | 0 mm | - | 302 W/m² | - |
| 1777467619 | 8.89° C | 76% | 997.1 hPa | 0 mm | - | 297 W/m² | - |
| 1777467019 | 8.33° C | 75% | 997 hPa | 0 mm | - | 578 W/m² | - |
| 1777466420 | 9.44° C | 73% | 997.1 hPa | 0 mm | - | 626 W/m² | - |
| 1777465819 | 8.89° C | 75% | 997.2 hPa | 0 mm | - | 661 W/m² | - |
| 1777465219 | 8.89° C | 76% | 997.4 hPa | 0 mm | - | 526 W/m² | - |
* Rain latest hour (hover to see other rain measurements)
** Current wind speed in m/s (hover to see current wind gust speed)